Weather History for Del Bajio, Mexico

Change the Weather History Date:

Tuesday, February 19, 2013

  Actual Average Record
Temperature  
Mean Temperature 66 °F -  
Max Temperature 87 °F 78 °F 87 °F (2009)
Min Temperature 44 °F 45 °F 37 °F (2004)
Growing Degree Days 16 (Base 50)    
Moisture  
Dew Point 28 °F    
Average Humidity 26    
Maximum Humidity 46    
Minimum Humidity 11    
Precipitation  
Precipitation 0.00 in - - ()
Sea Level Pressure  
Sea Level Pressure 30.10 in    
Wind  
Wind Speed 3 mph ()    
Max Wind Speed 14 mph    
Max Gust Speed -    
Visibility 8.8 miles    
Events      
Averages and records for this station are not official NWS values.
T = Trace of Precipitation, MM = Missing Value Source: Averaged Metar Reports

Daily Weather History Graph

Daily Weather History Graph

Search for Another Location

Airport:

Trip Planner

Search our weather history database for the weather conditions in past years. The results will help you decide how hot, cold, wet, or windy it might be!

Date:

Astronomy

Feb. 19, 2013 Rise Set
Actual Time 7:13 AM CST 6:46 PM CST
Civil Twilight 6:50 AM CST 7:08 PM CST
Nautical Twilight 6:24 AM CST 7:34 PM CST
Astronomical Twilight 5:59 AM CST 8:00 PM CST
Moon 1:41 PM CST (2/19) 2:25 AM CST (2/19)
Length of Visible Light 12h 18m
Length of Day
11h 32m
Waxing Gibbous, 67% of the Moon is Illuminated
Feb 19
Waxing Gibbous
Feb 25
Full
Mar 4
Last Quarter
Mar 11
New
Mar 19
First Quarter

Hourly Weather History & Observations

Time (CST) Temp. Windchill Dew Point Humidity Pressure Visibility Wind Dir Wind Speed Gust Speed Precip Events Conditions
12:51 AM 57.2 °F - 30.2 °F 36% 30.20 in 8.0 mi Calm Calm - N/A   Clear
1:42 AM 53.6 °F - 24.8 °F 33% 30.21 in 8.0 mi Calm Calm - N/A   Clear
3:48 AM 48.2 °F - 24.8 °F 40% 30.19 in 8.0 mi NE 6.9 mph - N/A   Clear
4:43 AM 48.2 °F - 28.4 °F 46% 30.18 in 7.0 mi Calm Calm - N/A   Clear
5:50 AM 48.2 °F - 26.6 °F 43% 29.85 in 8.0 mi Calm Calm - N/A   Clear
6:43 AM 44.6 °F 42.2 °F 23.0 °F 43% 30.22 in 8.0 mi ENE 4.6 mph - N/A   Clear
7:51 AM 51.8 °F - 28.4 °F 41% 30.27 in 7.0 mi Calm Calm - N/A   Clear
8:40 AM 64.4 °F - 32.0 °F 30% 29.96 in 10.0 mi East 13.8 mph - N/A   Clear
9:41 AM 68.0 °F - 32.0 °F 26% 30.29 in 10.0 mi SE 6.9 mph - N/A   Partly Cloudy
10:47 AM 75.2 °F - 32.0 °F 21% 30.29 in 10.0 mi SSE 8.1 mph - N/A   Scattered Clouds
11:47 AM 77.0 °F - 32.0 °F 19% 29.90 in 10.0 mi SSW 6.9 mph - N/A   Mostly Cloudy
12:55 PM 82.4 °F - 32.0 °F 16% 30.24 in 10.0 mi SSE 6.9 mph - N/A   Mostly Cloudy
1:44 PM 84.2 °F - 30.2 °F 14% 30.21 in 10.0 mi Calm Calm - N/A   Mostly Cloudy
2:40 PM 86.0 °F - 30.2 °F 13% 29.77 in 10.0 mi SE 5.8 mph - N/A   Mostly Cloudy
3:42 PM 87.8 °F - 26.6 °F 11% 30.12 in 10.0 mi Calm Calm - N/A   Mostly Cloudy
4:40 PM 84.2 °F - 28.4 °F 13% 30.12 in 10.0 mi Calm Calm - N/A   Mostly Cloudy
6:41 PM 75.2 °F - 26.6 °F 17% 30.12 in 10.0 mi Calm Calm - N/A   Mostly Cloudy
7:47 PM 71.6 °F - 26.6 °F 19% 30.12 in 8.0 mi Calm Calm - N/A   Mostly Cloudy
8:43 PM 69.8 °F - 26.6 °F 20% 29.76 in 8.0 mi Calm Calm - N/A   Scattered Clouds
9:40 PM 64.4 °F - 26.6 °F 24% 30.16 in 8.0 mi NNE 6.9 mph - N/A   Scattered Clouds
10:50 PM 60.8 °F - 26.6 °F 27% 30.17 in 8.0 mi NE 5.8 mph - N/A   Scattered Clouds
11:50 PM 59.0 °F - 28.4 °F 31% 29.79 in 8.0 mi NE 6.9 mph - N/A   Scattered Clouds